Погода в Кроткове

Россия / Самарская область     53°51′29″N   52°07′31″E
темп.,
°C
ветер,
м/с
пор.,
м/с
влажн.,
%
обл.,
%
осадки,
мм/ч
давл.,
гПа
погр.,
м
19 сентября, вс
вс1901:00+2сз22765 0.0 102232
04:00+1сз34895 0.0 102369
07:00+1зсз288730 0.0 1024223
10:00+6сз4662100 0.0 1024878
13:00+9сз454530 0.0 10241253
16:00+10сз45405 0.0 10241346
19:00+6ссз225662 0.0 102419
22:00+5с2262100 0.0 102520
20 сентября, пн
пн2001:00+3с226796 0.0 102611
04:00+2ссв11735 0.0 102610
07:00+2всв117340 0.0 102710
10:00+8в335057 0.0 1027636
13:00+12в3338100 0.0 10261169
16:00+12в3335100 0.0 10251204
19:00+8всв374881 0.0 1025118
22:00+7всв4949100 0.0 1025234
21 сентября, вт
вт2101:00+7в51048100 0.0 1026355
04:00+7в4950100 0.0 1025305
07:00+7в4851100 0.0 1025310
10:00+8в4847100 0.0 1024385
13:00+9в5949100 0.0 1024426
16:00+9в61047100 0.0 1022444
19:00+10вюв51043100 0.0 1022451
22:00+10вюв51043100 0.0 1021351
22 сентября, ср
ср2201:00+10вюв51150100 0.0 1019302
04:00+11вюв61349100 0.0 1018410
07:00+12юв61347100 0.0 1018450
10:00+13юв51141100 0.0 1019495
13:00+15ююв6947100 0.1 1018734
16:00+12юв61252100 0.2 1020561
19:00+12юв61139100 0.0 1020464
22:00+9юв4963100 0.8 1022336
23 сентября, чт
чт2301:00+10вюв51273100 0.4 1022359
04:00+9вюв5116595 0.4 1022267
07:00+9вюв51363100 0.0 1022304
10:00+15ююв51034100 0.0 1023655
13:00+18ююв5725100 0.0 10231256
16:00+18ю4727100 0.0 1023574
19:00+14вюв2235100 0.0 102445
22:00+12юв3751100 0.2 1025360